Flag for Germany Weather past 2 weeks in Fellbach, Baden-Württemberg, Germany

Now
64 °F

Sunny.


Feels Like: 64 °F
Forecast: 55 / 80 °F
Wind: 3 mph from East

Location: Stuttgart-Echterdingen

Current Time: Jul 25, 2014 at 9:24:30 AM

Latest Report: Jul 25, 2014 at 8:50 AM


Visibility: 10 mi

Pressure: 29.95 "Hg

Humidity: 78%

Dew point: 57 °F

Location of FellbachLocation

Historic Weather in Fellbach — Graph

°F

Fellbach temperature yesterday

Maximum temperature yesterday: 79 °F (at 2:20 PM)
Minimum temperature yesterday: 59 °F (at 4:20 AM)
Average temperature yesterday: 70 °F

Past Weeks' High & Low Weather Summary

 TemperatureHumidityPressure
High91 °F (Jul 19, 3:50 PM)100% (Jul 11, 3:20 AM)30.21 "Hg (Jul 11, 3:20 AM)
Low54 °F (Jul 10, 8:20 AM)22% (Jul 18, 2:50 PM)29.77 "Hg (Jul 10, 8:20 AM)
Average68 °F70%29.99 "Hg
* Reported Jul 10 8:20 AM — Jul 25 8:20 AM, Fellbach, Weather by CustomWeather, © 2014

Note: Actual official high and low records may vary slightly from our data, if they occured in-between our weather recording intervals... More about our weather records

Advertising

Fellbach weather history for previous 24 hours

 ConditionsComfort  
Time TempWeatherWind HumidityBarometerVisibility
8:20 AM
Jul 25
63 °FSunny.3 mph88%29.95 "Hg10 mi
7:50 AM63 °FSunny.2 mph83%29.95 "Hg10 mi
7:20 AM61 °FSunny.2 mph83%29.95 "Hg10 mi
6:50 AM63 °FSunny.No wind83%29.95 "Hg10 mi
6:20 AM61 °FClear.3 mph83%29.95 "Hg10 mi
5:50 AM61 °FClear.2 mph83%29.95 "Hg10 mi
5:20 AM61 °FClear.1 mph83%29.95 "Hg10 mi
4:50 AM59 °FClear.1 mph88%29.95 "Hg10 mi
4:20 AM59 °FClear.2 mph88%29.95 "Hg10 mi
3:50 AM59 °FClear.3 mph88%29.92 "Hg10 mi
3:20 AM59 °FClear.3 mph88%29.92 "Hg10 mi
2:50 AM61 °FClear.1 mph83%29.92 "Hg10 mi
2:20 AM61 °FClear.2 mph83%29.92 "Hg10 mi
1:50 AM63 °FClear.5 mph77%29.92 "Hg10 mi
1:20 AM64 °FClear.5 mph73%29.92 "Hg10 mi
12:50 AM64 °FClear.1 mph68%29.92 "Hg10 mi
12:20 AM66 °FClear.6 mph64%29.95 "Hg10 mi
11:50 PM
Jul 24
68 °FClear.No wind64%29.95 "Hg10 mi
11:20 PM68 °FClear.7 mph60%29.92 "Hg10 mi
10:50 PM68 °FClear.6 mph60%29.92 "Hg10 mi
10:20 PM70 °FClear.5 mph57%29.92 "Hg10 mi
9:50 PM70 °FSunny.5 mph57%29.92 "Hg10 mi
9:20 PM73 °FSunny.5 mph47%29.92 "Hg10 mi
8:50 PM73 °FSunny.6 mph47%29.92 "Hg10 mi
8:20 PM77 °FSunny.6 mph36%29.89 "Hg10 mi
7:50 PM77 °FSunny.6 mph34%29.89 "Hg10 mi
7:20 PM79 °FPassing clouds.5 mph32%29.89 "HgN/A
6:50 PM77 °FSunny.7 mph36%29.89 "Hg10 mi
6:20 PM79 °FSunny.6 mph37%29.89 "Hg10 mi
5:50 PM79 °FSunny.3 mph28%29.89 "Hg10 mi
5:20 PM79 °FSunny.6 mph30%29.92 "Hg10 mi
4:50 PM79 °FSunny.6 mph37%29.92 "Hg10 mi
4:20 PM79 °FSunny.6 mph39%29.92 "Hg10 mi
3:50 PM79 °FSunny.7 mph42%29.92 "Hg10 mi
3:20 PM79 °FSunny.8 mph39%29.92 "Hg10 mi
2:50 PM77 °FSunny.13 mph36%29.92 "Hg10 mi
2:20 PM79 °FPassing clouds.6 mph32%29.92 "HgN/A
1:50 PM77 °FSunny.8 mph39%29.92 "Hg10 mi
1:20 PM77 °FPassing clouds.8 mph44%29.92 "HgN/A
12:50 PM75 °FPassing clouds.6 mph54%29.92 "HgN/A
12:20 PM75 °FPassing clouds.8 mph54%29.95 "HgN/A
11:50 AM73 °FPassing clouds.7 mph53%29.92 "HgN/A
11:20 AM73 °FPassing clouds.6 mph57%29.95 "HgN/A
10:50 AM73 °FSunny.6 mph53%29.92 "Hg10 mi
10:20 AM72 °FPassing clouds.5 mph57%29.92 "HgN/A
9:50 AM72 °FSunny.3 mph57%29.92 "Hg10 mi
9:20 AM70 °FSunny.5 mph60%29.92 "Hg10 mi
Weather by CustomWeather, © 2014

See weather overviewHow to use our weather pages